Miscellaneous Local Product
Issued by NWS North Platte, NE

Home | Current Version | Previous Version | Graphics & Text | Print | Product List | Glossary On
Versions: 1 2 3 4 5 6 7 8 9 10 11 12 13 14 15 16 17 18 19 20 21 22 23 24 25 26 27 28 29 30 31 32 33 34 35 36 37 38 39 40 41 42 43 44 45 46 47 48 49 50
000
AXUS43 KLBF 152310
MISLBF


WESTERN AND NORTH CENTRAL NEBRASKA HOURLY WEATHER ROUNDUP
NATIONAL WEATHER SERVICE NORTH PLATTE NE
600 PM CDT SUN OCT 15 2017

NOTE: "FAIR" INDICATES FEW OR NO CLOUDS BELOW 12,000 FEET WITH NO
SIGNIFICANT WEATHER AND/OR OBSTRUCTIONS TO VISIBILITY.

NOTE: STATIONS NOT REPORTING VARIABLES SUCH AS SKY/WEATHER OR
PRESSURE ARE PROVIDED BY RAWS AND APRS NETWORKS AND ARE NOT UNDER
NATIONAL WEATHER SERVICE QUALITY CONTROL.

...OBSERVATIONS IN AND NEAR THE EASTERN PANHANDLE OF NEBRASKA...

CITY           SKY/WX    TMP DP  RH WIND       PRES   REMARKS
PINE RIDGE     SUNNY     60  27  28 W15       30.31S
GORDON         FAIR      60  29  31 NW7       30.32S
CHADRON        SUNNY     61  24  24 W10       30.32F
ALLIANCE       SUNNY     60  23  24 NW6       30.33F
SIDNEY         SUNNY     62  22  21 N6        30.37S
CRESCENT LAKE    N/A     62  23  22 NW7         N/A
$$

...OBSERVATIONS IN NORTHERN NEBRASKA AND FAR SOUTHERN SOUTH DAKOTA...

CITY           SKY/WX    TMP DP  RH WIND       PRES   REMARKS
WINNER         FAIR      60  32  34 NW10      30.28S
VALENTINE      CLEAR     62  28  27 NW9       30.30F
THEDFORD       CLEAR     61  30  31 N8        30.33S
AINSWORTH      CLEAR     58  31  35 NW9G17    30.31S
O`NEILL        CLEAR     59  32  36 NW14G20   30.30S
ORD            CLEAR     61  27  27 NW13      30.30S
BROKEN BOW     CLEAR     62  30  29 NW10      30.31S
VALENTINE NWR    N/A     60  26  27 NW10G18     N/A
HALSEY           N/A     62  26  25 NW8G16      N/A
BUTTE            N/A     58  33  39 NW12G20     N/A
CHAMBERS         N/A     58  31  35 N3          N/A
EWING            N/A     59  33  37 NW9G16      N/A
$$

...OBSERVATIONS IN SOUTHWEST NEBRASKA AND FAR NORTHEAST COLORADO...

CITY           SKY/WX    TMP DP  RH WIND       PRES   REMARKS
WRAY           FAIR      64  19  17 CALM      30.37F
HOLYOKE        FAIR      64  23  20 W5        30.37S
IMPERIAL       SUNNY     64  20  18 NW7       30.36S
OGALLALA       SUNNY     64  24  22 NW9       30.35F
NORTH PLATTE   SUNNY     63  32  31 NW12      30.33S
MCCOOK         SUNNY     64  26  23 NW8       30.35S
LEXINGTON      CLEAR     64  30  27 NW13      30.33S
STAPLETON        N/A     61  30  31 CALM        N/A
GOTHENBURG       N/A     64  24  22 NW9         N/A
CALLAWAY         N/A     63  31  29 NW14        N/A
$$

...OBSERVATIONS IN CENTRAL LINCOLN COUNTY AREA...

CITY           SKY/WX    TMP DP  RH WIND       PRES   REMARKS
N.P. AIRPORT   SUNNY     63  32  31 NW12      30.33S
N.P. DOWNTOWN    N/A     62  30  30 CALM        N/A
N.P. SOUTHEAST   N/A     63  29  27 NW3         N/A
N.P. HILLCREST   N/A     63  28  26 NW10        N/A
$$

...SOME OBSERVATIONS FROM AROUND THE REGION...

CITY           SKY/WX    TMP DP  RH WIND       PRES   REMARKS
DENVER         SUNNY     63  17  17 E8        30.38F
LIMON          SUNNY     60  19  20 S13       30.41S
ASPEN          SUNNY     60   9  13 NW6       30.48F
LARAMIE        SUNNY     58  18  21 W13       30.41S
CASPER         SUNNY     60  19  20 W14       30.34F
CHEYENNE       SUNNY     57  21  24 S13       30.40S
SCOTTSBLUFF    SUNNY     63  23  21 W7        30.34F
GRAND ISLAND   CLEAR     62  31  31 NW12      30.32F
OMAHA          CLEAR     60  33  36 W9        30.30S
SIOUX FALLS    PTCLDY    57  36  45 W13       30.22R
PIERRE         CLEAR     60  29  30 NW14      30.24S
RAPID CITY     SUNNY     60  28  29 N13       30.28F
BISMARCK       CLEAR     57  28  33 NW18G26   30.19R
KANSAS CITY    CLEAR     58  34  40 NW10      30.33S
HILL CITY      SUNNY     66  26  22 NW8       30.36F
WICHITA        CLEAR     63  34  33 N12       30.37F
DODGE CITY     SUNNY     64  29  26 NW5       30.40F
OKLAHOMA CITY  PTCLDY    63  35  35 N18       30.35F
DALLAS         PTSUNNY   73  37  27 N20G26    30.24S
AMARILLO       SUNNY     62  28  27 NE5       30.44S
$$




USA.gov is the U.S. government's official web portal to all federal, state and local government web resources and services.